GW3733 Weather Reports


time (UTC)temp
C
wind
direction
speed
KPH
gust
KPH
rain 1hr
cm
rain 24hr
cm
rain mn
cm
humidity
%
barometer
mb
20260901143621 28 7 0.0 0.0 0.00 0.00 0.00 82 1014.2
20260901143118 28 355 0.0 0.0 0.00 0.00 0.00 85 1014.4
20260901142613 28 333 0.0 0.0 0.00 0.00 0.00 83 1014.2
20260901142107 28 2 0.0 0.0 0.00 0.00 0.00 82 1014.2
20260901141602 29 2 0.0 0.0 0.00 0.00 0.00 79 1014.3
20260901141057 28 136 0.0 0.0 0.00 0.00 0.00 80 1014.3
20260901140555 28 206 0.0 0.0 0.00 0.00 0.00 80 1014.4
20260901140049 28 14 0.0 0.0 0.00 0.00 0.00 82 1014.5
20260901135548 27 19 0.0 0.0 0.00 0.00 0.00 83 1014.4
20260901135045 27 351 0.0 0.0 0.00 0.00 0.00 84 1014.6
20260901134541 26 328 0.0 0.0 0.00 0.00 0.00 86 1014.5
20260901134040 27 64 0.0 0.0 0.00 0.00 0.00 84 1014.7
20260901133534 27 347 0.0 0.0 0.00 0.00 0.00 87 1014.7
20260901133032 26 48 0.0 0.0 0.00 0.00 0.00 85 1014.6
20260901132527 25 84 0.0 0.0 0.00 0.00 0.00 89 1014.7
20260901132026 25 109 0.0 0.0 0.00 0.00 0.00 91 1014.4
20260901131521 24 1 0.0 0.0 0.00 0.00 0.00 94 1014.7
20260901131016 23 355 0.0 0.0 0.00 0.00 0.00 96 1014.7
20260901130511 22 354 0.0 0.0 0.00 0.00 0.00 99 1014.6
20260901130010 22 354 0.0 0.0 0.00 0.00 0.00 99 1014.7
20260901125508 22 354 0.0 0.0 0.00 0.00 0.00 99 1014.8
20260901125003 21 354 0.0 0.0 0.00 0.00 0.00 99 1014.7
20260901124458 21 354 0.0 0.0 0.00 0.00 0.00 99 1014.9
20260901123953 21 354 0.0 0.0 0.00 0.00 0.00 99 1014.8
20260901123448 21 354 0.0 0.0 0.00 0.00 0.00 99 1014.9
20260901122946 21 354 0.0 0.0 0.00 0.00 0.00 99 1014.9
20260901122445 20 354 0.0 0.0 0.00 0.00 0.00 99 1015.0
20260901121945 20 354 0.0 0.0 0.00 0.00 0.00 99 1015.2
20260901121440 20 354 0.0 0.0 0.00 0.00 0.00 99 1014.9
20260901120935 20 354 0.0 0.0 0.00 0.00 0.00 99 1015.2
20260901120429 20 354 0.0 0.0 0.00 0.00 0.00 99 1014.9
20260901115925 20 354 0.0 0.0 0.00 0.00 0.00 99 1015.0
20260901115424 19 353 0.0 0.0 0.00 0.00 0.00 99 1014.8
20260901114922 19 353 0.0 0.0 0.00 0.00 0.00 99 1014.8
20260901114418 19 353 0.0 0.0 0.00 0.00 0.00 99 1015.0
20260901113916 19 354 0.0 0.0 0.00 0.00 0.00 99 1014.8
20260901113415 19 353 0.0 0.0 0.00 0.00 0.00 99 1014.6
20260901112910 19 353 0.0 0.0 0.00 0.00 0.00 99 1014.6
20260901112405 18 353 0.0 0.0 0.00 0.00 0.00 99 1014.6
20260901111900 18 353 0.0 0.0 0.00 0.00 0.00 99 1014.6
20260901111358 18 352 0.0 0.0 0.00 0.00 0.00 99 1014.7
20260901110857 18 352 0.0 0.0 0.00 0.00 0.00 99 1014.6
20260901110353 18 352 0.0 0.0 0.00 0.00 0.00 99 1014.6
20260901105849 18 352 0.0 0.0 0.00 0.00 0.00 99 1014.3
20260901105344 18 352 0.0 0.0 0.00 0.00 0.00 99 1014.5
20260901104840 18 352 0.0 0.0 0.00 0.00 0.00 99 1014.4
20260901104335 18 352 0.0 0.0 0.00 0.00 0.00 99 1014.2
20260901103830 18 352 0.0 0.0 0.00 0.00 0.00 99 1014.2
20260901103324 18 352 0.0 0.0 0.00 0.00 0.00 99 1014.1
20260901102820 18 352 0.0 0.0 0.00 0.00 0.00 99 1014.1
20260901102320 18 352 0.0 0.0 0.00 0.00 0.00 99 1014.1
20260901101815 19 352 0.0 0.0 0.00 0.00 0.00 99 1014.0
20260901101310 19 352 0.0 0.0 0.00 0.00 0.00 99 1014.1
20260901100809 19 352 0.0 0.0 0.00 0.00 0.00 99 1014.1
20260901100304 19 352 0.0 0.0 0.00 0.00 0.00 99 1014.4
20260901095803 19 352 0.0 0.0 0.00 0.00 0.00 99 1014.2
20260901095300 19 352 0.0 0.0 0.00 0.00 0.00 99 1014.5
20260901094754 19 352 0.0 0.0 0.00 0.00 0.00 99 1014.2
20260901094249 19 352 0.0 0.0 0.00 0.00 0.00 99 1014.0
20260901093745 19 352 0.0 0.0 0.00 0.00 0.00 99 1014.1
20260901093243 20 352 0.0 0.0 0.00 0.00 0.00 99 1014.1
20260901092740 20 352 0.0 0.0 0.00 0.00 0.00 99 1013.9
20260901092235 20 352 0.0 0.0 0.00 0.00 0.00 99 1014.1
20260901091731 20 352 0.0 0.0 0.00 0.00 0.00 99 1014.2
20260901091226 20 353 0.0 0.0 0.00 0.00 0.00 99 1014.0
20260901090721 20 352 0.0 0.0 0.00 0.00 0.00 99 1014.2
20260901090216 20 352 0.0 0.0 0.00 0.00 0.00 99 1013.9
20260901085712 20 352 0.0 0.0 0.00 0.00 0.00 99 1014.1
20260901085207 20 352 0.0 0.0 0.00 0.00 0.00 99 1014.1
20260901084704 20 352 0.0 0.0 0.00 0.00 0.00 99 1014.1
20260901084159 20 353 0.0 0.0 0.00 0.00 0.00 99 1014.0
20260901083653 20 352 0.0 0.0 0.00 0.00 0.00 99 1013.9
20260901083152 20 353 0.0 0.0 0.00 0.00 0.00 99 1014.0
20260901082646 19 352 0.0 0.0 0.00 0.00 0.00 99 1014.1
20260901082142 19 353 0.0 0.0 0.00 0.00 0.00 99 1014.3
20260901081637 19 352 0.0 0.0 0.00 0.00 0.00 99 1014.0
20260901081131 19 352 0.0 0.0 0.00 0.00 0.00 99 1014.2
20260901080631 19 353 0.0 0.0 0.00 0.00 0.00 99 1014.2
20260901080130 19 353 0.0 0.0 0.00 0.00 0.00 99 1014.2
20260901075626 19 353 0.0 0.0 0.00 0.00 0.00 99 1014.3
20260901075125 19 352 0.0 0.0 0.00 0.00 0.00 99 1014.2
20260901074625 19 353 0.0 0.0 0.00 0.00 0.00 99 1014.4
20260901074120 19 353 0.0 0.0 0.00 0.00 0.00 99 1014.2
20260901073616 19 353 0.0 0.0 0.00 0.00 0.00 99 1014.2
20260901073111 19 353 0.0 0.0 0.00 0.00 0.00 99 1014.2
20260901072607 19 353 0.0 0.0 0.00 0.00 0.00 99 1014.2
20260901072101 19 352 0.0 0.0 0.00 0.00 0.00 99 1014.4
20260901071556 19 353 0.0 0.0 0.00 0.00 0.00 99 1014.3
20260901071055 19 353 0.0 0.0 0.00 0.00 0.00 99 1014.2
20260901070549 18 353 0.0 0.0 0.00 0.00 0.00 99 1014.2
20260901070045 18 353 0.0 0.0 0.00 0.00 0.00 99 1014.3
20260901065539 18 352 0.0 0.0 0.00 0.00 0.00 99 1014.6
20260901065034 18 353 0.0 0.0 0.00 0.00 0.00 99 1014.4
20260901064531 18 353 0.0 0.0 0.00 0.00 0.00 99 1014.4
20260901064027 18 353 0.0 0.0 0.00 0.00 0.00 99 1014.6
20260901063524 18 353 0.0 0.0 0.00 0.00 0.00 99 1014.6
20260901063020 18 353 0.0 0.0 0.00 0.00 0.00 99 1014.5
20260901062515 19 353 0.0 0.0 0.00 0.00 0.00 99 1014.6
20260901062011 19 353 0.0 0.0 0.00 0.00 0.00 99 1014.5
20260901061507 19 352 0.0 0.0 0.00 0.00 0.00 99 1014.7
20260901061006 19 353 0.0 0.0 0.00 0.00 0.00 99 1014.7
20260901060456 20 352 0.0 0.0 0.00 0.00 0.00 99 1014.9
20260901055955 20 352 0.0 0.0 0.00 0.00 0.00 99 1014.7
20260901055452 20 352 0.0 0.0 0.00 0.00 0.00 99 1014.9
20260901054949 19 353 0.0 0.0 0.00 0.00 0.00 99 1014.8
20260901054446 19 352 0.0 0.0 0.00 0.00 0.00 99 1015.0
20260901053941 19 353 0.0 0.0 0.00 0.00 0.00 99 1014.9
20260901053436 19 353 0.0 0.0 0.00 0.00 0.00 99 1014.9
20260901052932 19 353 0.0 0.0 0.00 0.00 0.00 99 1015.2
20260901052427 19 353 0.0 0.0 0.00 0.00 0.00 99 1015.1
20260901051925 19 352 0.0 0.0 0.00 0.00 0.00 99 1015.1
20260901051422 20 353 0.0 0.0 0.00 0.00 0.00 99 1015.3
20260901050916 20 353 0.0 0.0 0.00 0.00 0.00 99 1015.1
20260901050412 20 352 0.0 0.0 0.00 0.00 0.00 99 1015.1
20260901045911 20 352 0.0 0.0 0.00 0.00 0.00 99 1015.3
20260901045406 20 352 0.0 0.0 0.00 0.00 0.00 99 1015.3
20260901044901 20 352 0.0 0.0 0.00 0.00 0.00 99 1014.9
20260901044357 20 353 0.0 0.0 0.00 0.00 0.00 99 1015.5
20260901043852 20 352 0.0 0.0 0.00 0.00 0.00 99 1015.1
20260901043348 20 352 0.0 0.0 0.00 0.00 0.00 99 1015.1
20260901042843 20 353 0.0 0.0 0.00 0.00 0.00 99 1015.2
20260901042337 20 352 0.0 0.0 0.00 0.00 0.00 99 1015.4
20260901041833 20 353 0.0 0.0 0.00 0.00 0.00 99 1015.2
20260901041328 20 353 0.0 0.0 0.00 0.00 0.00 99 1015.4
20260901040827 20 353 0.0 0.0 0.00 0.00 0.00 99 1015.3
20260901040327 20 353 0.0 0.0 0.00 0.00 0.00 99 1015.4
20260901035821 20 352 0.0 0.0 0.00 0.00 0.00 99 1015.4
20260901035320 20 353 0.0 0.0 0.00 0.00 0.00 99 1015.3
20260901034818 20 353 0.0 0.0 0.00 0.00 0.00 99 1015.5
20260901034314 20 352 0.0 0.0 0.00 0.00 0.00 99 1015.4
20260901033813 20 353 0.0 0.0 0.00 0.00 0.00 99 1015.6
20260901033312 20 353 0.0 0.0 0.00 0.00 0.00 99 1015.4
20260901032806 20 353 0.0 0.0 0.00 0.00 0.00 99 1015.6
20260901032306 20 353 0.0 0.0 0.00 0.00 0.00 99 1015.6
20260901031801 20 353 0.0 0.0 0.00 0.00 0.00 99 1015.7
20260901031257 20 353 0.0 0.0 0.00 0.00 0.00 99 1015.6
20260901030756 20 353 0.0 0.0 0.00 0.00 0.00 99 1015.8
20260901030256 20 353 0.0 0.0 0.00 0.00 0.00 99 1015.8
20260901025751 20 353 0.0 0.0 0.00 0.00 0.00 99 1015.8
20260901025246 20 353 0.0 0.0 0.00 0.00 0.00 99 1015.5
20260901024741 20 353 0.0 0.0 0.00 0.00 0.00 99 1015.8
20260901024240 20 353 0.0 0.0 0.00 0.00 0.00 99 1015.8
20260901023738 20 353 0.0 0.0 0.00 0.00 0.00 99 1015.7
20260901023233 20 353 0.0 0.0 0.00 0.00 0.00 99 1015.6
20260901022729 20 354 0.0 0.0 0.00 0.00 0.00 99 1015.8
20260901022224 20 354 0.0 0.0 0.00 0.00 0.00 99 1015.9
20260901021719 20 354 0.0 0.0 0.00 0.00 0.00 99 1015.8
20260901021215 20 354 0.0 0.0 0.00 0.00 0.00 99 1015.8
20260901020710 20 354 0.0 0.0 0.00 0.00 0.00 99 1015.7
20260901020205 20 354 0.0 0.0 0.00 0.00 0.00 99 1015.8
20260901015705 20 354 0.0 0.0 0.00 0.00 0.00 99 1015.9
20260901015200 20 354 0.0 0.0 0.00 0.00 0.00 99 1015.7
20260901014655 20 354 0.0 0.0 0.00 0.00 0.00 99 1015.7
20260901014151 20 354 0.0 0.0 0.00 0.00 0.00 99 1015.8
20260901013647 20 354 0.0 0.0 0.00 0.00 0.00 99 1015.6
20260901013142 20 354 0.0 0.0 0.00 0.00 0.00 99 1015.5
20260901012637 20 354 0.0 0.0 0.00 0.00 0.00 99 1015.5
20260901012132 20 354 0.0 0.0 0.00 0.00 0.00 99 1015.4
20260901011628 20 354 0.0 0.0 0.00 0.00 0.00 99 1015.0
20260901011127 20 354 0.0 0.0 0.00 0.00 0.00 99 1015.0
20260901010621 20 354 0.0 0.0 0.00 0.00 0.00 99 1015.2
20260901010120 20 354 0.0 0.0 0.00 0.00 0.00 99 1015.2
20260901005615 21 354 0.0 0.0 0.00 0.00 0.00 99 1015.2
20260901005110 21 354 0.0 0.0 0.00 0.00 0.00 99 1015.0
20260901004609 21 354 0.0 0.0 0.00 0.00 0.00 99 1014.9
20260901004105 21 354 0.0 0.0 0.00 0.00 0.00 99 1014.7
20260901003559 21 354 0.0 0.0 0.00 0.00 0.00 99 1015.0
20260901003058 21 354 0.0 0.0 0.00 0.00 0.00 99 1014.7
20260901002552 21 354 0.0 0.0 0.00 0.00 0.00 99 1015.0
20260901002047 21 354 0.0 0.0 0.00 0.00 0.00 99 1014.7
20260901001542 22 354 0.0 0.0 0.00 0.00 0.00 99 1014.9
20260901001037 22 354 0.0 0.0 0.00 0.00 0.00 99 1015.0
20260901000532 22 354 0.0 0.0 0.00 0.00 0.00 99 1014.9
20260901000028 22 354 0.0 0.0 0.00 0.00 0.00 99 1015.2
20260831235521 22 354 0.0 0.0 0.00 0.00 0.00 99 1015.1
20260831235017 23 354 0.0 0.0 0.00 0.00 0.00 99 1014.9
20260831234511 23 354 0.0 0.0 0.00 0.00 0.00 98 1015.0
20260831234007 23 354 0.0 0.0 0.00 0.00 0.00 98 1015.0
20260831233501 23 354 0.0 0.0 0.00 0.00 0.00 98 1014.9
20260831232957 24 354 0.0 0.0 0.00 0.00 0.00 98 1015.1
20260831232452 24 354 0.0 0.0 0.00 0.00 0.00 97 1015.1
20260831231948 24 354 0.0 0.0 0.00 0.00 0.00 97 1014.9
20260831231445 25 354 0.0 0.0 0.00 0.00 0.00 96 1015.0
20260831230940 25 354 0.0 0.0 0.00 0.00 0.00 96 1015.2
20260831230434 25 354 0.0 0.0 0.00 0.00 0.00 96 1015.1
20260831225929 25 354 0.0 0.0 0.00 0.00 0.00 96 1015.1
20260831225425 25 354 0.0 0.0 0.00 0.00 0.00 95 1015.1
20260831224920 25 354 0.0 0.0 0.00 0.00 0.00 95 1015.2
20260831224419 25 354 0.0 0.0 0.00 0.00 0.00 95 1015.0
20260831223914 25 354 0.0 0.0 0.00 0.00 0.00 94 1015.1
20260831223410 25 354 0.0 0.0 0.00 0.00 0.00 94 1015.1
20260831222907 25 354 0.0 0.0 0.00 0.00 0.00 93 1014.7
20260831222402 26 354 0.0 0.0 0.00 0.00 0.00 92 1014.9
20260831221857 26 354 0.0 0.0 0.00 0.00 0.00 92 1015.3
20260831221353 26 354 0.0 0.0 0.00 0.00 0.00 91 1015.2
20260831220848 26 354 0.0 0.0 0.00 0.00 0.00 89 1015.2
20260831220343 25 354 0.0 0.0 0.00 0.00 0.00 92 1015.4
20260831215838 25 354 0.0 0.0 0.00 0.00 0.00 93 1015.4
20260831215334 26 354 0.0 0.0 0.00 0.00 0.00 92 1015.2
20260831214830 26 354 0.0 0.0 0.00 0.00 0.00 91 1015.3
20260831214327 26 354 0.0 0.0 0.00 0.00 0.00 92 1015.5
20260831213822 26 354 0.0 0.0 0.00 0.00 0.00 91 1015.4
20260831213319 26 354 0.0 0.0 0.00 0.00 0.00 91 1015.5
20260831212814 26 353 0.0 0.0 0.00 0.00 0.00 91 1015.6
20260831212311 26 354 0.0 0.0 0.00 0.00 0.00 90 1015.2
20260831211809 26 354 0.0 0.0 0.00 0.00 0.00 91 1015.5
20260831211304 26 354 0.0 0.0 0.00 0.00 0.00 89 1015.5
20260831210758 26 354 0.0 0.0 0.00 0.00 0.00 88 1015.5
20260831210255 27 357 0.0 0.0 0.00 0.00 0.00 87 1015.4
20260831205754 27 358 0.0 0.0 0.00 0.00 0.00 86 1015.5
20260831205250 27 356 0.0 0.0 0.00 0.00 0.00 84 1015.5
20260831204749 27 0 0.0 0.0 0.00 0.00 0.00 83 1015.6
20260831204249 27 346 0.0 0.0 0.00 0.00 0.00 88 1015.5
20260831203743 27 0 0.0 0.0 0.00 0.00 0.00 85 1015.5
20260831203238 27 15 0.0 0.0 0.00 0.00 0.00 87 1015.6
20260831202736 26 17 0.0 0.0 0.00 0.00 0.00 86 1015.8
20260831202231 26 10 0.0 0.0 0.00 0.00 0.00 89 1015.7
20260831201731 26 10 0.0 0.0 0.00 0.00 0.00 90 1015.8
20260831201224 26 10 0.0 0.0 0.00 0.00 0.00 88 1016.0
20260831200720 26 10 0.0 0.0 0.00 0.00 0.00 92 1015.8
20260831200214 26 10 0.0 0.0 0.00 0.00 0.00 91 1015.7
20260831195710 26 10 0.0 0.0 0.00 0.00 0.00 91 1016.1
20260831195205 25 10 0.0 0.0 0.00 0.00 0.00 91 1016.1
20260831194654 26 10 0.0 0.0 0.00 0.00 0.00 91 1016.1
20260831194149 26 10 0.0 0.0 0.00 0.00 0.00 89 1016.0
20260831193644 26 10 0.0 0.0 0.00 0.00 0.00 87 1016.0
20260831193139 26 17 0.0 0.0 0.00 0.00 0.00 87 1015.9
20260831192634 27 17 0.0 0.0 0.00 0.00 0.00 86 1016.1
20260831192130 26 16 0.0 0.0 0.00 0.00 0.00 83 1016.1
20260831191626 26 348 0.0 0.0 0.00 0.00 0.00 83 1016.1
20260831191121 26 348 0.0 0.0 0.00 0.00 0.00 83 1016.2
20260831190616 26 352 0.0 0.0 0.00 0.00 0.00 85 1016.4
20260831190114 26 356 0.0 0.0 0.00 0.00 0.00 85 1016.1
20260831185605 26 52 0.0 0.0 0.00 0.00 0.00 82 1016.4
20260831185100 26 5 0.0 0.0 0.00 0.00 0.00 87 1016.6
20260831184554 26 352 0.0 0.0 0.00 0.00 0.00 85 1016.6
20260831184049 27 347 0.0 0.0 0.00 0.00 0.00 85 1016.4
20260831183548 26 353 0.0 0.0 0.00 0.00 0.00 81 1016.4
20260831183042 26 7 0.0 0.0 0.00 0.00 0.00 81 1016.3
20260831182537 26 15 0.0 0.0 0.00 0.00 0.00 87 1016.6
20260831182032 26 15 0.0 0.0 0.00 0.00 0.00 85 1016.6
20260831181527 26 11 0.0 0.0 0.00 0.00 0.00 83 1016.6
20260831181026 26 11 0.0 0.0 0.00 0.00 0.00 87 1016.5
20260831180521 26 11 0.0 0.0 0.00 0.00 0.00 84 1016.7
20260831180017 25 11 0.0 0.0 0.00 0.00 0.00 89 1016.7
20260831175512 26 11 0.0 0.0 0.00 0.00 0.00 88 1016.7
20260831175009 26 11 0.0 0.0 0.00 0.00 0.00 86 1016.9
20260831174508 25 11 0.0 0.0 0.00 0.00 0.00 89 1016.6
20260831174003 25 11 0.0 0.0 0.00 0.00 0.00 90 1016.3
20260831173501 25 11 0.0 0.0 0.00 0.00 0.00 91 1016.4
20260831172957 25 11 0.0 0.0 0.00 0.00 0.00 87 1016.4
20260831172452 25 11 0.0 0.0 0.00 0.00 0.00 87 1016.5
20260831171947 25 11 0.0 0.0 0.00 0.00 0.00 87 1016.4
20260831171443 25 11 0.0 0.0 0.00 0.00 0.00 85 1016.7
20260831170939 26 11 0.0 0.0 0.00 0.00 0.00 86 1016.6
20260831170430 26 12 0.0 0.0 0.00 0.00 0.00 85 1016.7
20260831165927 26 352 0.0 0.0 0.00 0.00 0.00 82 1016.9
20260831165422 26 352 0.0 0.0 0.00 0.00 0.00 83 1016.9
20260831164919 26 351 0.0 0.0 0.00 0.00 0.00 80 1016.9
20260831164415 26 350 0.0 0.0 0.00 0.00 0.00 83 1017.0
20260831163910 26 348 0.0 0.0 0.00 0.00 0.00 80 1016.7
20260831163405 26 4 0.0 0.0 0.00 0.00 0.00 80 1016.9
20260831162904 26 356 0.0 0.0 0.00 0.00 0.00 80 1017.0
20260831162359 26 342 0.0 0.0 0.00 0.00 0.00 81 1016.9
20260831161857 27 355 0.0 0.0 0.00 0.00 0.00 81 1016.7
20260831161354 26 345 0.0 0.0 0.00 0.00 0.00 79 1017.1
20260831160849 26 345 0.0 0.0 0.00 0.00 0.00 78 1017.0
20260831160343 27 30 0.0 0.0 0.00 0.00 0.00 76 1017.0
20260831155838 27 355 0.0 0.0 0.00 0.00 0.00 76 1016.9
20260831155332 27 15 0.0 0.0 0.00 0.00 0.00 75 1017.1
20260831154828 27 339 0.0 0.0 0.00 0.00 0.00 74 1017.0
20260831154325 26 334 0.0 0.0 0.00 0.00 0.00 80 1017.3
20260831153823 26 359 0.0 0.0 0.00 0.00 0.00 79 1017.0
20260831153319 27 12 0.0 0.0 0.00 0.00 0.00 79 1017.0
20260831152815 27 55 0.0 0.0 0.00 0.00 0.00 76 1017.3
20260831152311 27 12 0.0 0.0 0.00 0.00 0.00 77 1017.2
20260831151806 27 13 0.0 0.0 0.00 0.00 0.00 79 1017.2
20260831151305 26 41 0.0 0.0 0.00 0.00 0.00 81 1017.2
20260831150800 26 355 0.0 0.0 0.00 0.00 0.00 81 1017.3
20260831150256 26 355 0.0 0.0 0.00 0.00 0.00 80 1017.5
20260831145754 26 348 0.0 0.0 0.00 0.00 0.00 83 1017.5
20260831145251 25 354 0.0 0.0 0.00 0.00 0.00 83 1017.5
20260831144746 25 351 0.0 0.0 0.00 0.00 0.00 81 1017.0
20260831144243 26 350 0.0 0.0 0.00 0.00 0.00 84 1017.3